SB KEPS @ AMSAT $ORB14037.N 2Line Orbital Elements 14037.AMSAT
HR AMSAT ORBITAL ELEMENTS FOR AMATEUR SATELLITES IN NASA FORMAT FROM WA5QGD FORT WORTH,TX February 6, 2014 BID: ORB14037.N
DECODE 2-LINE ELSETS WITH THE FOLLOWING KEY: 1 AAAAAU 00 0 0 BBBBB.BBBBBBBB .CCCCCCCC 00000-0 00000-0 0 DDDZ 2 AAAAA EEE.EEEE FFF.FFFF GGGGGGG HHH.HHHH III.IIII JJ.JJJJJJJJKKKKKZ KEY: A-CATALOGNUM B-EPOCHTIME C-DECAY D-ELSETNUM E-INCLINATION F-RAAN G-ECCENTRICITY H-ARGPERIGEE I-MNANOM J-MNMOTION K-ORBITNUM Z-CHECKSUM
TO ALL RADIO AMATEURS BT
AO-07 1 07530U 74089B 14037.17633226 -.00000016 00000-0 17334-3 0 8884 2 07530 101.4583 023.3942 0011874 189.2726 232.6537 12.53601937795105 FO-29 1 24278U 96046B 14037.11307781 -.00000015 00000-0 23945-4 0 3012 2 24278 098.5237 069.0087 0349494 277.6898 145.9553 13.53014758862947 SO-33 1 25509U 98061B 14037.82492654 .00000482 00000-0 85220-4 0 6846 2 25509 031.4306 178.9121 0350279 052.4462 069.1525 14.29296089798482 RS-22 1 27939U 03042A 14037.85333770 .00001291 00000-0 24985-3 0 1985 2 27939 097.8001 218.5520 0013194 157.9794 202.1987 14.64857134553645 VO-52 1 28650U 05017B 14037.19547341 .00003107 00000-0 37082-3 0 6523 2 28650 097.5623 048.7707 0024502 227.0549 223.3346 14.84720321473795 HO-68 1 36122U 09072B 14037.75894269 -.00000043 00000-0 00000 0 0 3011 2 36122 100.2702 093.5138 0007586 175.0160 185.1021 13.16311430199272 AO-73 1 39444U 13066AE 14037.76238976 .00002230 00000-0 31025-3 0 579 2 39444 097.7895 112.8379 0062414 307.2224 052.3314 14.77470154 10200 UO-11 1 14781U 84021B 14037.13580909 .00001274 00000-0 17004-3 0 4080 2 14781 097.8705 099.7234 0007770 241.6021 118.4409 14.81280771608561 AO-16 1 20439U 90005D 14037.54987317 .00000279 00000-0 11950-3 0 9493 2 20439 098.4967 337.4268 0011080 179.7969 296.5757 14.32276956255787 LO-19 1 20442U 90005G 14036.83325913 .00000241 00000-0 10475-3 0 8866 2 20442 098.4668 337.7795 0012197 172.0967 188.0412 14.32482806255877 AO-27 1 22825U 93061C 14037.47413987 .00000260 00000-0 11883-3 0 5905 2 22825 098.6481 344.3590 0007599 326.9863 170.4801 14.29651379 62109 IO-26 1 22826U 93061D 14037.46991483 .00000286 00000-0 12829-3 0 3476 2 22826 098.6423 344.5965 0008022 318.7631 041.2944 14.29944701 62239 GO-32 1 25397U 98043D 14037.49629891 .00000148 00000-0 83624-4 0 2705 2 25397 098.4511 000.4848 0001052 034.0144 077.3176 14.23400348809270 NO-44 1 26931U 01043C 14037.19324009 .00000204 00000-0 11087-3 0 5297 2 26931 067.0533 016.2262 0005663 269.2298 090.8154 14.30034790644871 SO-50 1 27607U 02058C 14037.86946771 .00001170 00000-0 19925-3 0 2979 2 27607 064.5557 269.4923 0034265 060.0433 023.2014 14.73387730598284 CO-55 1 27844U 03031E 14036.86554752 .00000492 00000-0 24524-3 0 8497 2 27844 098.7004 047.5305 0008629 296.1416 183.7770 14.21379962549929 CO-57 1 27848U 03031J 14037.82868176 .00000390 00000-0 19989-3 0 7918 2 27848 098.7095 048.1188 0008560 300.1795 183.9316 14.21084301549983 AO-51 1 28375U 04025K 14037.44665963 .00000640 00000-0 20288-3 0 7658 2 28375 098.2354 348.9248 0083637 028.4849 117.9150 14.41265177505077 CP3 1 31129U 07012N 14037.86976755 .00002275 00000-0 51267-3 0 6687 2 31129 097.9207 022.5902 0100355 057.4620 006.7232 14.54193910361096 CO-65 1 32785U 08021C 14037.65935956 .00003513 00000-0 42104-3 0 8613 2 32785 097.7192 093.1686 0012790 255.9788 222.0022 14.84645580312650 PRISM 1 33493U 09002B 14037.89295470 .00005246 00000-0 57873-3 0 6191 2 33493 098.2378 208.2088 0018400 146.7931 213.4498 14.87816281272797 SOHLA-1 1 33496U 09002E 14036.88965880 .00000889 00000-0 15462-3 0 2676 2 33496 098.1532 157.6534 0005277 303.3437 169.1992 14.70570005270218 TISAT-1 1 36799U 10035E 14037.78617856 .00003241 00000-0 39000-3 0 8844 2 36799 098.0208 128.8952 0014693 030.8037 329.4035 14.84554374193365 STUDSAT 1 36801U 10035G 14037.55231609 .00013719 00000-0 13404-2 0 7648 2 36801 098.0348 134.4494 0010099 004.8565 120.6826 14.92462047193612 ALMASAT-1 1 38078U 12006B 14037.16156002 .00036266 00000-0 80289-3 0 9231 2 38078 069.4744 012.7320 0642354 204.9926 290.9723 14.38546811102717 XATCOBEO 1 38082U 12006F 14037.86752644 .00118671 58930-5 15517-2 0 9217 2 38082 069.4593 308.8047 0408768 170.4813 259.2432 14.98331822104515 CUBEBUG-1 1 39153U 13018D 14037.78445453 .00001776 00000-0 25812-3 0 8316 2 39153 098.0542 118.3475 0019088 051.5491 308.7429 14.77103870 42301 ESTCUBE-1 1 39161U 13021C 14037.71816139 .00001400 00000-0 24424-3 0 8003 2 39161 098.1070 119.5645 0011407 089.7549 270.4973 14.69515790 40433 NOAA-10 1 16969U 86073A 14037.55916348 .00000201 00000-0 98815-4 0 6626 2 16969 098.5251 065.0267 0011144 277.6838 195.8814 14.27712298425382 NOAA-11 1 19531U 88089A 14037.34588271 .00000112 00000-0 79848-4 0 6851 2 19531 098.6909 119.6617 0010266 315.0471 044.9871 14.15054462309231 NOAA-12 1 21263U 91032A 14037.47713509 .00000143 00000-0 78819-4 0 1560 2 21263 098.6770 065.7504 0012875 256.2064 240.3452 14.25623341181931 MET-3/5 1 21655U 91056A 14036.84947197 .00000282 00000-0 69969-3 0 8963 2 21655 082.5541 089.2235 0012118 263.3909 096.5834 13.17051025 80693 MET-2/21 1 22782U 93055A 14037.83754550 .00000036 00000-0 19670-4 0 9700 2 22782 082.5483 276.7316 0021076 270.4946 138.0264 13.83723889 32093 OKEAN-4 1 23317U 94066A 14037.20589598 .00002992 00000-0 34647-3 0 4491 2 23317 082.5388 190.6803 0021314 169.6826 346.4084 14.85046718 43660 NOAA-14 1 23455U 94089A 14037.45783911 .00000122 00000-0 87050-4 0 6370 2 23455 098.7855 123.1830 0010119 057.0194 071.6420 14.13946588985471 NOAA-15 1 25338U 98030A 14037.48996205 .00000328 00000-0 15803-3 0 678 2 25338 098.7447 031.6649 0011162 162.5786 309.0463 14.25337822818220 RESURS 1 25394U 98043A 14036.86347551 .00000086 00000-0 55110-4 0 5817 2 25394 098.3956 006.8868 0000245 309.4434 108.5150 14.24365425809620 FENGYUN1 1 25730U 99025A 14037.14942383 .00003553 00000-0 19825-2 0 737 2 25730 098.9021 359.1722 0027640 114.5332 339.3408 14.11307635759030 OKEAN-0 1 25860U 99039A 14037.86889882 .00001207 00000-0 18713-3 0 1673 2 25860 098.0256 002.6642 0002055 108.5224 304.1425 14.74950169782942 NOAA-16 1 26536U 00055A 14037.46056558 .00000250 00000-0 15828-3 0 5547 2 26536 099.0088 097.1516 0010710 189.9741 287.3591 14.12982692689658 NOAA-17 1 27453U 02032A 14037.51811826 .00000267 00000-0 13221-3 0 4582 2 27453 098.3120 044.1341 0011703 192.3066 278.7419 14.24682761604089 NOAA-18 1 28654U 05018A 14037.51300826 .00000289 00000-0 18359-3 0 9425 2 28654 099.1334 014.4973 0013337 270.6674 196.3526 14.11940456449120 NOAA-19 1 33591U 09005A 14037.51390443 .00000214 00000-0 14224-3 0 1152 2 33591 098.9316 343.0423 0014922 126.4853 342.0943 14.11635148257558 HUBBLE 1 20580U 90037B 14037.62645205 .00004899 00000-0 32836-3 0 4326 2 20580 028.4696 174.9587 0003147 339.5337 090.3434 15.04617097105022 ISS 1 25544U 98067A 14037.91046442 .00010445 00000-0 19019-3 0 6315 2 25544 051.6498 025.3811 0004186 110.3661 335.4213 15.50081440871119 CO-58 1 28895U 05043F 14037.12388207 .00001078 00000-0 22565-3 0 6895 2 28895 097.8459 245.7303 0018581 066.7977 293.5179 14.61540823441105 FALCON 1 30776U 07006E 14037.44583598 .00011868 00000-0 64895-3 0 7961 2 30776 035.4284 201.7543 0000782 209.2951 248.7651 15.13558661380890 MAST 1 31126U 07012K 14036.86726208 .00001669 00000-0 37611-3 0 9663 2 31126 097.9018 024.7260 0093449 044.7617 016.9030 14.54942220361291 CAPE1 1 31130U 07012P 14037.13955792 .00001575 00000-0 35951-3 0 9718 2 31130 097.9219 021.4911 0100887 060.8858 300.2395 14.53981196360765 COMPASS 1 32787U 08021E 14037.12163168 .00007615 00000-0 85912-3 0 8492 2 32787 097.7207 094.3717 0013078 251.7870 108.1923 14.86775406312706 AAUSAT2 1 32788U 08021F 14037.78945154 .00004844 00000-0 54102-3 0 8340 2 32788 097.7218 095.8606 0012639 247.9920 111.9954 14.87373424312854 DO-64 1 32789U 08021G 14037.48551395 .00008871 00000-0 89961-3 0 8714 2 32789 097.7391 100.9152 0011956 236.9781 248.0531 14.91062763313002 CO-66 1 32791U 08021J 14037.57482985 .00004823 00000-0 56144-3 0 8300 2 32791 097.7206 093.8284 0013616 252.6048 107.3679 14.85665665312655 RS-30 1 32953U 08025A 14037.76158589 .00000010 00000-0 00000 0 0 6280 2 32953 082.5014 282.3168 0019594 079.2781 281.0502 12.43042348259056 METEOR-M 1 35865U 09049A 14037.76407288 -.00000002 00000-0 18575-4 0 2352 2 35865 098.5700 089.0177 0003115 106.8412 253.3100 14.21906850227801 RS-38 1 35869U 09049E 14037.70727509 .00000117 00000-0 71759-4 0 1832 2 35869 098.5626 088.8079 0005756 113.4470 001.1870 14.22176868227825 JUGNU 1 37839U 11058B 14036.27515883 .00000576 00000-0 16627-3 0 5560 2 37839 019.9622 334.3858 0019000 331.5855 163.3209 14.12241710119889 SRMSAT 1 37841U 11058D 14037.22209339 .00000451 00000-0 10360-3 0 5565 2 37841 019.9730 345.3465 0011730 286.7515 217.1676 14.10295837119854 RAX-2 1 37853U 11061D 14037.46654437 .00011989 00000-0 85431-3 0 7168 2 37853 101.7115 005.0794 0225894 074.3059 038.3326 14.86554818123211 AUBIESAT 1 37854U 11061E 14037.88542303 .00014063 00000-0 97521-3 0 7016 2 37854 101.7156 007.1268 0224751 070.9133 345.6355 14.87574228123317 HRBE 1 37855U 11061F 14037.88688568 .00013517 00000-0 94565-3 0 7110 2 37855 101.7155 006.6747 0226290 071.8067 344.4255 14.87070806123295 RS-39 1 38051U 11062C 14037.81221610 .00050854 00000-0 11188-2 0 2348 2 38051 051.6308 150.8419 0008378 028.4178 109.8735 15.43435795113864 E-STAR 1 38079U 12006C 14037.84625152 .00082286 43338-5 13096-2 0 7355 2 38079 069.4654 327.6437 0490431 180.4766 179.5805 14.77474009104001 GOLIAT 1 38085U 12006J 14037.89791255 .00054498 36900-5 90841-3 0 7866 2 38085 069.4711 332.1191 0503965 182.8715 239.8030 14.73827012103884 HORYU-2 1 38340U 12025D 14037.79938683 .00002524 00000-0 41206-3 0 7544 2 38340 098.2461 352.9810 0011447 228.2686 131.7582 14.71777408 92610 RS-40 1 38735U 12041C 14036.95958559 .00000024 00000-0 10000-3 0 4796 2 38735 082.4752 009.3582 0016440 177.1975 182.9197 12.42556120 69285 PROITERES 1 38756U 12047B 14037.79245752 .00001194 00000-0 18678-3 0 5566 2 38756 098.2342 123.9590 0013681 082.1361 278.1400 14.74624736 75961 BEESAT-3 1 39134U 13015E 14037.48101568 .00006919 00000-0 52515-3 0 4933 2 39134 064.8752 191.5800 0015292 328.7823 031.2391 15.02843917 44007 BEESAT-2 1 39136U 13015G 14037.76922357 .00006597 00000-0 50524-3 0 4843 2 39136 064.8743 190.8352 0015739 330.4247 029.5983 15.02541558 44046 CAPE-2 1 39380U 13064A 14036.76450302 .00006498 00000-0 28976-3 0 823 2 39380 040.5169 158.1040 0002477 142.3299 217.7693 15.21653834 11846 TRLBLAZER 1 39382U 13064C 14037.62722062 .00046441 00000-0 17409-2 0 983 2 39382 040.5042 151.3353 0003586 034.8409 325.2736 15.26439962 11987 ZACUBE-1 1 39417U 13066B 14037.15492654 .00002133 00000-0 29752-3 0 2115 2 39417 097.7883 112.2476 0062654 309.0792 050.4873 14.77400997 11348 TRITON-1 1 39427U 13066M 14037.13112102 .00001451 00000-0 25410-3 0 646 2 39427 097.7804 110.6880 0118979 307.8172 051.2309 14.64788197 11208 DELFIN3XT 1 39428U 13066N 14037.26368537 .00002311 00000-0 41438-3 0 684 2 39428 097.7770 110.5103 0129901 307.6678 051.2810 14.62330244 11193 GOMX-1 1 39430U 13066Q 14037.71874778 .00001336 00000-0 26514-3 0 2019 2 39430 097.7751 110.2184 0157238 307.4925 051.2063 14.56242564 11222 $50SAT 1 39436U 13066W 14037.58746522 .00011946 00000-0 13799-2 0 796 2 39436 097.7901 113.5460 0028941 320.7910 039.1238 14.85440170 11457 PUCPSAT-1 1 39442U 13066AC 14036.83105638 .00002744 00000-0 32438-3 0 582 2 39442 097.7925 112.8510 0034857 318.3691 041.4876 14.85041843 10121 /EX
participants (1)
-
Ray Hoad